User: anonymous   Login
Location: Hartman Creek State Park
(44.3257°N, 89.2134°W)
Time: 18:38:04
(UTC-06:00)
Language:

Cosmos 2263 Rocket - Orbit

View from above orbital plane
View from above orbital plane
View from above satellite
View from above satellite

Ground track
Ground track

The orbit data is extracted from the following two-line orbital elements,

1 22803U 93059B   17051.23443260 -.00000230  00000-0 -90636-4 0  9994
2 22803  70.9908 135.8833 0018396 210.7258 149.2790 14.16765151211714
Epoch (UTC): 20 February 2017 05:37:34
Eccentricity: 0.0018396
inclination: 70.9908°
perigee height: 823 km
apogee height: 849 km
right ascension of ascending node: 135.8833°
argument of perigee: 210.7258°
revolutions per day: 14.16765151
mean anomaly at epoch: 149.2790°
orbit number at epoch: 21171

The dashed part of the orbit path shows where the satellite is in the earth's shadow,  

DLR